Погода в Глучине

Чехия     49°53′47″N   18°11′27″E
темп.,
°C
ветер,
м/с
пор.,
м/с
влажн.,
%
обл.,
%
осадки,
мм/ч
давл.,
гПа
погр.,
м
18 августа, чт
чт1823:00+23всв34605 0.0 101262
02:00+21вюв227192 0.0 101224
05:00+20в1174100 0.0 101211
08:00+23в2364100 0.0 1012212
11:00+28в444578 0.0 1012833
14:00+31в323522 0.0 10111741
17:00+31в223385 0.0 10101824
20:00+26в345296 0.0 101063
19 августа, пт
пт1923:00+23всв366132 0.0 1009101
02:00+21вюв1170100 0.0 101014
05:00+20всв117270 0.0 100911
08:00+24вюв116277 0.0 1010128
11:00+30ю2240100 0.0 1010680
14:00+34ююв243258 0.0 10091601
17:00+34всв333147 0.0 10071676
20:00+29всв474558 0.0 1006119
20 августа, сб
сб2023:00+20зюз61184100 11.0 1011269
02:00+20зсз2384100 11.2 101165
05:00+19в11914 0.1 101123
08:00+21сз008270 0.1 1011239
11:00+25ссз3265100 0.0 10121017
14:00+26ссз5363100 0.0 1012904
17:00+27ссз445695 0.0 10101114
20:00+20ссз4989100 3.8 1012271
21 августа, вс
вс2123:00+20сз3694100 3.4 1013315
02:00+19с4797100 12.7 1012427
05:00+19с2595100 0.3 1012445
08:00+19ссз3595100 1.1 1012367
11:00+19сз4594100 1.6 1012405
14:00+19сз5892100 2.1 1011506
17:00+18сз51095100 2.0 1010501
20:00+17сз51095100 3.3 1009419
22 августа, пн
пн2223:00+17сз4997100 2.3 1009415
02:00+17сз51097100 2.9 1009513
05:00+17ссз61096100 0.5 1010585
08:00+17ссз61095100 0.5 1011700
11:00+16ссз61094100 0.1 1012636
14:00+17ссз6992100 0.3 1013802
17:00+16ссз61094100 0.2 1014719
20:00+15ссз71293100 0.3 1014637